GFSFLT2_sfc_thetae_198.txt.gz
Theta_e
312 313 312 309 307 313 308 310 306 311 316 321 324 323 327 329 334 333 333 334 339 342 346 348 348 351 351 352 354 355 355 357
311 313 313 311 314 306 309 301 301 306 309 310 319 322 325 328 334 335 335 333 338 342 346 347 349 351 352 353 353 356 358 360
310 308 307 308 309 310 311 310 304 303 308 318 321 323 325 327 336 337 336 333 336 341 346 348 349 349 350 351 355 357 359 361
305 312 312 311 310 310 306 307 310 309 308 321 321 323 327 328 338 339 338 334 336 339 345 347 348 349 349 351 355 357 361 362
303 308 310 308 310 312 312 313 310 306 308 321 322 323 327 330 338 339 338 335 336 340 343 345 347 349 350 353 354 358 361 361
299 304 308 306 307 310 310 308 310 309 314 320 322 322 328 335 339 339 338 337 336 340 344 346 348 350 352 353 355 358 359 359
306 308 309 308 307 308 309 311 308 312 313 320 323 322 329 337 338 337 337 337 338 340 345 347 348 352 353 354 354 357 358 359
303 307 308 307 308 308 309 310 312 313 317 323 325 327 330 335 335 335 336 335 340 342 346 347 348 351 352 354 354 357 357 357
299 306 306 303 308 308 309 312 312 310 319 322 321 322 326 333 335 336 336 336 341 342 346 347 348 352 351 354 355 357 357 358
300 304 296 307 313 313 311 312 314 316 321 322 322 324 331 335 335 338 337 338 342 343 347 350 350 352 355 354 357 354 357 358
299 299 304 307 311 311 310 311 316 317 320 323 326 328 325 332 337 341 340 342 344 345 349 353 352 355 355 355 354 355 354 358
301 298 296 309 313 317 315 306 319 318 320 319 326 318 323 331 339 339 342 344 346 346 348 354 355 358 356 356 356 354 356 357
299 299 305 313 316 317 305 311 328 326 329 322 319 325 331 330 339 341 342 345 348 348 347 351 356 357 357 355 355 358 359 361
299 299 298 322 321 314 324 329 328 329 331 332 333 329 331 333 329 343 341 342 349 348 346 354 359 357 356 356 357 360 363 362
302 303 323 323 322 325 327 327 327 328 329 330 330 332 335 337 335 338 346 354 348 346 360 367 361 360 359 359 363 362 364 364
309 310 313 321 322 321 324 326 328 330 332 331 329 331 334 340 341 342 343 347 348 355 357 362 370 369 363 366 370 369 365 366
309 314 317 319 319 319 321 327 329 331 334 334 337 337 337 337 344 344 346 346 346 355 360 365 367 366 368 374 373 368 368 366
303 313 314 316 319 321 324 327 329 333 336 340 343 340 338 342 343 343 344 346 348 351 364 369 369 367 368 368 372 368 366 364
306 315 317 320 322 326 326 328 331 332 335 337 343 346 350 344 347 341 350 349 347 353 354 366 371 369 371 372 371 369 365 364

GFSFLT2_sfc_thetae_201.txt.gz
Theta_e
308 308 306 303 299 303 296 300 297 307 309 317 319 322 324 324 326 329 332 333 337 339 341 341 341 342 345 346 347 349 347 349
306 308 308 303 306 297 298 291 291 303 305 305 314 317 320 322 323 326 333 333 338 339 341 342 342 343 344 349 348 349 347 347
302 300 300 302 300 299 299 297 293 296 302 315 315 318 320 322 325 327 330 331 337 339 343 343 344 345 345 347 348 349 349 348
296 304 306 305 300 301 297 294 297 297 302 316 318 321 320 319 325 329 330 331 334 339 342 343 342 343 345 346 347 348 349 349
293 298 303 300 304 302 300 298 296 296 300 318 317 319 323 320 324 330 329 329 333 337 339 341 342 342 344 345 346 349 351 352
290 295 300 300 303 303 301 297 297 300 305 313 317 318 320 326 327 331 328 328 332 337 338 340 341 341 343 343 350 350 352 352
299 301 303 303 303 303 300 302 298 302 307 311 316 319 324 329 328 330 327 327 330 335 338 340 341 342 343 344 348 351 351 351
298 302 303 301 304 305 304 304 302 305 311 319 320 321 322 331 328 330 328 328 331 336 338 339 341 342 344 345 347 351 351 351
291 301 301 297 302 304 304 305 303 301 312 321 319 322 324 326 329 330 330 330 331 337 338 339 342 343 344 346 348 350 350 351
293 297 289 301 308 309 307 307 307 306 318 320 321 323 326 328 325 324 330 332 332 338 339 340 342 344 345 347 347 348 349 350
290 292 298 302 306 306 303 304 310 307 320 320 320 321 323 329 328 328 331 332 335 339 340 341 341 344 345 346 346 347 347 350
289 289 290 301 310 315 312 305 322 322 318 321 320 313 319 326 330 328 332 333 336 339 342 342 342 345 345 344 346 344 347 350
290 290 298 312 319 322 301 309 322 323 322 320 316 319 323 328 329 327 326 336 339 339 341 342 345 345 343 345 344 347 348 348
291 291 291 318 317 311 316 321 321 323 324 322 325 323 322 325 325 326 329 337 339 338 339 343 346 346 343 343 347 348 348 349
295 296 315 314 313 317 318 318 322 324 327 329 328 326 330 329 323 329 335 334 336 338 339 343 347 347 346 346 346 349 350 349
298 306 313 313 315 317 319 321 326 328 330 332 329 332 331 329 332 334 336 337 335 337 336 342 348 347 347 349 350 349 350 351
302 307 312 314 316 317 320 327 329 331 332 333 336 339 341 333 334 335 335 336 336 333 337 346 351 349 349 352 356 353 351 353
299 306 306 310 318 322 321 326 327 327 328 333 334 333 339 341 342 340 336 338 337 337 335 339 353 353 354 358 359 357 356 354
304 311 310 315 320 321 322 327 327 323 325 327 330 332 337 338 340 339 348 346 340 337 336 347 350 354 354 359 362 359 357 358

GFSFLT2_sfc_thetae_207.txt.gz
Theta_e
300 300 300 295 290 295 289 287 289 293 304 312 317 323 324 325 327 329 330 331 333 333 335 335 337 336 341 345 344 345 345 345
300 300 300 297 298 290 287 284 283 289 299 302 310 318 322 324 326 328 331 332 333 335 336 335 339 338 339 345 345 346 346 345
293 293 294 293 290 290 290 289 288 285 294 308 310 317 322 324 327 328 330 332 333 335 337 337 339 340 339 341 344 345 346 345
290 294 298 296 294 293 290 287 288 289 293 304 312 316 325 326 328 329 330 332 334 335 337 338 337 339 339 340 342 344 346 345
286 289 293 290 292 290 289 288 287 288 292 306 311 312 318 323 326 324 325 331 333 335 335 336 337 340 340 340 340 342 345 345
282 285 292 293 296 296 291 287 288 289 294 299 311 313 315 316 319 322 323 329 331 334 336 337 338 338 340 341 342 342 343 343
290 293 295 296 297 298 293 293 290 294 295 299 309 312 315 319 320 320 322 323 330 333 335 337 338 338 339 342 343 343 343 343
288 296 297 297 299 300 299 299 294 294 295 301 306 318 322 325 327 325 323 326 330 333 336 336 337 338 338 340 343 344 343 343
284 291 293 291 296 299 299 310 308 294 297 307 314 319 323 326 326 325 324 328 330 333 336 337 338 339 338 340 343 343 343 344
283 287 284 293 302 304 304 313 314 314 317 318 315 320 325 328 327 324 324 328 331 335 336 338 340 340 340 342 342 342 342 343
282 282 290 299 302 305 306 306 317 316 321 323 318 317 318 324 323 327 326 328 332 337 338 339 340 340 340 340 342 342 341 343
283 281 284 294 308 312 312 299 316 320 323 325 314 309 315 319 324 324 328 330 330 336 337 338 339 340 338 338 339 341 343 343
283 283 287 304 310 314 299 301 312 321 324 327 320 321 330 323 324 321 326 328 330 336 337 337 338 339 337 338 337 341 345 345
282 282 285 310 311 304 310 314 316 322 324 325 326 329 333 321 321 324 327 329 330 334 335 337 338 339 337 337 341 341 343 344
287 287 303 309 309 312 313 312 318 321 324 326 326 328 332 334 335 334 328 328 331 333 333 333 336 339 337 339 341 341 341 342
295 297 301 309 311 312 314 313 320 323 324 325 324 327 330 331 333 336 341 337 330 330 329 331 335 338 339 337 338 340 339 340
297 300 301 306 306 309 314 316 318 322 323 324 324 324 327 329 331 335 340 343 345 332 328 330 334 335 336 334 338 339 340 340
292 298 300 301 307 310 314 314 315 320 321 323 324 324 326 327 330 334 335 337 340 343 339 334 335 336 336 336 337 339 338 339
298 305 305 306 311 314 315 315 314 322 323 320 323 325 326 325 326 326 331 335 337 339 341 341 341 342 344 343 338 337 337 338

GFSFLT2_sfc_thetae_210.txt.gz
Theta_e
297 298 297 291 289 293 288 285 286 289 297 304 308 315 324 321 324 328 330 330 330 332 334 334 334 334 339 342 343 345 346 345
296 297 296 295 296 288 285 283 282 287 293 297 307 312 322 321 323 327 331 330 331 331 333 336 335 335 339 343 343 345 346 346
291 290 291 291 289 288 289 287 285 284 290 306 309 311 319 322 325 327 330 330 331 331 334 336 337 336 337 342 343 344 345 346
286 290 295 293 292 292 289 285 286 287 293 302 311 311 320 323 326 328 331 331 332 334 333 335 336 337 336 340 343 345 346 346
284 287 291 289 291 289 288 287 289 287 290 302 306 311 314 321 325 328 329 331 332 334 334 335 335 337 337 338 342 345 346 346
281 284 290 292 295 292 289 285 286 287 291 297 301 303 311 315 325 327 328 330 332 333 334 336 336 337 339 338 341 344 345 345
289 291 292 293 295 296 291 292 290 293 292 297 300 303 308 316 319 322 324 328 330 332 334 336 337 337 339 340 340 342 343 344
286 293 294 294 297 298 297 297 294 294 294 301 315 314 315 317 319 318 321 324 329 332 335 335 337 337 340 340 341 342 341 342
283 288 291 290 295 298 304 310 308 298 301 314 317 318 315 317 322 322 322 323 325 330 334 336 337 339 338 341 342 341 341 342
282 286 283 292 303 307 307 312 314 314 318 322 323 324 323 322 324 325 327 326 327 327 334 337 339 340 340 341 342 342 342 342
281 280 288 297 302 304 302 305 311 312 320 325 327 320 316 322 326 325 327 326 330 333 335 339 339 341 340 339 341 342 342 343
281 280 282 292 307 311 310 300 312 313 319 323 322 308 310 330 332 327 327 330 330 335 337 338 340 341 339 338 339 340 342 343
282 282 286 304 308 311 297 299 310 314 320 323 321 324 328 334 327 324 326 328 332 336 336 338 340 340 338 339 339 342 344 344
282 281 281 306 308 301 306 311 313 317 321 321 324 327 328 331 332 337 338 329 330 334 336 339 340 340 338 338 342 344 344 344
288 285 304 305 308 311 311 312 313 313 321 322 322 325 326 329 331 335 337 342 331 332 335 337 339 340 338 339 341 341 343 343
293 299 298 302 307 310 311 314 315 316 322 323 321 323 325 327 331 333 335 337 339 332 332 333 337 340 340 341 341 340 341 342
293 299 298 305 303 307 312 315 315 315 322 321 323 322 324 326 326 330 332 336 338 340 336 334 335 337 340 339 341 340 341 341
291 298 298 298 305 309 310 313 314 313 319 322 322 323 324 324 326 327 328 333 332 332 335 339 339 339 340 339 341 341 340 340
297 302 301 304 307 310 309 313 315 316 318 319 322 324 324 324 324 323 325 328 326 326 328 330 330 329 332 340 339 340 339 340

GFSFLT2_sfc_thetae_216.txt.gz
Theta_e
309 312 313 310 306 313 307 308 304 307 310 315 317 318 319 320 328 329 331 338 341 344 344 343 345 348 349 352 356 358 359 359
306 309 310 309 311 304 306 299 298 303 305 307 313 316 319 321 324 328 336 339 341 343 344 344 345 348 350 352 355 357 358 357
305 303 303 304 304 306 308 305 300 299 304 315 313 316 317 319 321 327 335 340 340 342 345 345 345 346 348 351 353 356 359 359
300 306 308 307 305 306 301 301 304 304 305 316 316 318 318 318 321 330 333 341 342 342 345 345 346 345 346 349 352 358 363 364
298 301 304 302 305 307 307 306 303 300 303 316 317 317 317 315 319 324 331 339 343 344 344 345 346 348 347 351 351 354 363 357
295 299 302 299 301 304 304 300 301 302 305 311 313 314 316 318 323 327 328 337 343 345 346 347 351 353 354 352 350 355 356 356
302 301 301 302 301 302 301 303 300 304 304 309 312 315 319 325 327 329 330 333 341 345 347 347 351 356 355 353 353 355 360 357
299 301 301 299 302 303 304 303 303 304 304 312 315 323 325 329 332 333 335 334 336 345 348 348 349 352 354 355 358 358 360 360
296 300 300 297 302 303 304 305 306 302 309 325 325 327 330 332 334 335 337 338 337 340 347 350 350 352 353 355 355 358 360 362
296 299 291 307 315 314 310 316 316 320 323 325 327 330 332 337 335 337 339 342 342 341 344 350 353 354 355 354 359 357 359 361
293 294 298 303 310 312 311 312 314 313 316 319 325 330 331 336 337 338 341 344 347 347 344 348 351 356 359 355 356 357 357 360
296 291 290 305 310 314 315 307 315 314 315 316 320 318 325 332 334 335 336 344 348 351 347 347 353 360 359 359 358 357 358 360
294 293 298 307 312 317 304 303 311 313 316 315 314 319 325 332 332 332 334 338 348 352 352 348 352 355 357 359 358 360 360 360
294 292 291 312 312 306 305 309 309 314 319 318 319 322 326 328 329 329 330 334 341 350 350 350 354 354 359 358 361 361 360 359
298 299 309 313 308 309 309 307 310 313 319 321 321 322 324 327 327 326 328 328 335 346 347 352 355 356 354 358 359 360 361 361
300 304 307 309 313 312 309 309 312 314 318 320 320 323 324 326 325 324 324 323 325 330 343 351 354 355 356 359 359 357 356 359
300 304 307 309 311 313 314 315 312 313 318 319 321 322 324 324 322 323 321 321 321 320 323 328 336 343 350 357 359 357 356 356
296 305 304 307 311 312 312 312 312 312 317 320 320 320 320 320 319 320 319 319 318 318 319 321 323 326 332 337 348 356 354 354
302 306 306 307 310 312 313 313 314 314 317 320 320 320 318 316 316 316 317 317 317 316 318 319 318 319 322 328 340 353 355 353

GFSFLT2_sfc_thetae_219.txt.gz
Theta_e
312 315 315 312 309 315 308 310 306 309 313 318 321 321 323 323 326 326 329 333 340 345 346 346 346 347 348 357 361 362 361 366
309 313 314 313 316 307 308 301 300 306 308 310 316 317 321 322 325 327 330 335 338 343 346 348 348 348 349 350 357 357 358 362
308 306 307 308 308 312 311 308 302 302 307 318 318 319 320 323 325 324 331 336 342 343 346 348 348 347 348 349 354 358 362 364
303 309 311 310 309 310 304 304 308 307 307 319 320 320 320 321 324 325 328 333 342 344 345 347 347 347 347 352 354 360 365 368
302 305 308 305 308 309 310 309 306 303 306 319 320 319 320 320 324 326 329 331 339 344 344 346 347 350 349 353 354 358 366 363
298 302 306 303 305 307 307 303 304 306 309 314 317 318 319 319 324 325 330 331 335 343 347 350 352 356 356 354 353 358 363 361
303 305 306 304 304 305 305 306 303 306 308 313 316 317 320 323 326 329 330 334 335 341 348 349 353 358 358 354 355 356 362 362
302 304 304 302 304 305 305 306 306 307 307 315 316 318 320 326 329 331 333 336 339 340 346 350 353 354 358 358 359 359 361 362
298 303 302 298 303 304 305 307 307 303 311 318 319 323 326 328 334 337 338 340 343 345 344 348 352 358 357 361 360 361 361 364
298 301 292 303 311 308 307 316 320 321 322 325 326 329 330 340 337 336 338 341 343 347 350 349 351 355 360 357 364 361 360 362
296 296 301 308 312 310 310 313 319 319 321 322 325 328 331 334 336 336 338 341 343 347 351 354 349 355 363 360 362 362 362 362
298 293 292 306 312 316 317 308 316 316 317 319 324 317 323 330 335 335 337 339 339 345 349 352 357 356 364 363 361 362 362 364
297 296 301 310 313 316 304 303 314 314 315 318 316 320 325 330 334 333 334 333 336 341 347 354 358 356 359 364 362 363 367 367
297 295 294 314 313 308 309 314 314 316 317 317 320 323 324 327 330 331 330 328 328 332 343 355 356 358 364 365 368 369 367 369
301 302 313 316 314 315 315 312 315 318 317 320 321 322 324 326 327 328 328 325 323 326 338 344 347 359 356 365 368 370 369 368
302 306 308 310 316 317 317 317 318 317 318 322 321 322 322 324 327 325 325 325 320 321 326 329 335 342 350 361 364 363 363 366
301 304 308 310 314 314 315 317 318 320 319 321 324 320 319 320 323 322 323 321 319 317 318 320 324 329 336 342 348 357 359 359
296 306 306 308 311 311 312 314 317 318 319 320 325 322 318 317 317 318 320 321 319 317 316 318 320 322 325 330 337 344 352 354
304 308 306 309 310 311 309 314 317 318 319 322 323 324 320 317 321 319 321 321 318 317 317 317 317 318 322 327 335 343 348 352